Погода в Цицикаре

Китай     47°20′18″N   123°58′24″E
темп.,
°C
ветер,
м/с
пор.,
м/с
влажн.,
%
обл.,
%
осадки,
мм/ч
давл.,
гПа
погр.,
м
15 мая, сб
сб1523:00+14ссз2466100 0.0 1004170
02:00+12з497068 0.1 1004191
05:00+10зсз6134012 0.0 1005432
08:00+15зсз8112988 0.0 10071530
11:00+19сз8102219 0.0 10062686
14:00+21сз1011204 0.0 10052903
17:00+20сз810225 0.0 10062630
20:00+15с23341 0.0 100824
16 мая, вс
вс1623:00+14зюз4535100 0.0 100959
02:00+12з410387 0.0 1008168
05:00+11з411360 0.0 1008193
08:00+20зсз610200 0.0 1007777
11:00+25з811125 0.0 10044254
14:00+27зсз9101130 0.0 10014543
17:00+25зсз89145 0.0 10013569
20:00+18сз47260 0.0 1003102
17 мая, пн
пн1723:00+16з49320 0.0 1004150
02:00+15з48360 0.0 1003128
05:00+14зюз48393 0.0 1004141
08:00+22з57240 0.0 1003754
11:00+27з691853 0.0 10023121
14:00+28зюз681841 0.0 10003255
17:00+29юз61016100 0.0 9983926
20:00+22юз472862 0.0 998117
18 мая, вт
вт1823:00+20ююз593146 0.0 997158
02:00+20ююз7162699 0.0 995359
05:00+19юз6142661 0.0 995369
08:00+23сз9103213 0.0 9971006
11:00+25сз89285 0.1 9991766
14:00+25ссз682247 0.1 10002289
17:00+25с561999 0.0 9992182
20:00+19с5101998 0.0 1002293
19 мая, ср
ср1923:00+16ссз482366 0.0 1005150
02:00+14ссз5122683 0.0 1006313
05:00+13ссз382799 0.0 1007231
08:00+18ссв3422100 0.0 1007588
11:00+22всв33159 0.0 10071947
14:00+24ю33125 0.0 10052476
17:00+24юз55135 0.0 10042404
20:00+19ю45265 0.0 100468